This is the latest recevied weather packets stored in our database for station/object KG4GJX. If no packets are shown the sender has not sent any weather packets the latest 10 day(s).
| Time | Temp. | Humidity | Pressure | Rain* | Wind** | Luminosity | Snow |
|---|---|---|---|---|---|---|---|
| 1777521414 | 17.22° C | 88% | 1013.2 hPa | 0 mm | - | - | - |
| 1777520751 | 17.22° C | 87% | 1013.2 hPa | 0 mm | - | - | - |
| 1777520089 | 17.78° C | 87% | 1013.2 hPa | 0 mm | - | - | - |
| 1777519426 | 17.78° C | 87% | 1013.2 hPa | 0 mm | - | - | - |
| 1777518759 | 17.78° C | 88% | 1013.5 hPa | 0 mm | - | - | - |
| 1777518096 | 18.33° C | 88% | 1013.5 hPa | 0 mm | - | - | - |
| 1777517434 | 18.33° C | 87% | 1013.5 hPa | 0 mm | - | - | - |
| 1777516771 | 18.33° C | 85% | 1013.2 hPa | 0 mm | - | - | - |
| 1777516109 | 18.33° C | 89% | 1013.2 hPa | 0 mm | - | - | - |
| 1777515447 | 18.89° C | 88% | 1012.8 hPa | 0 mm | - | - | - |
| 1777514784 | 19.44° C | 88% | 1012.1 hPa | 0 mm | - | - | - |
| 1777514122 | 19.44° C | 86% | 1012.1 hPa | 0 mm | - | - | - |
| 1777513459 | 20° C | 86% | 1012.1 hPa | 0 mm | - | - | - |
| 1777512798 | 20° C | 85% | 1012.1 hPa | 0 mm | - | - | - |
| 1777512131 | 20° C | 84% | 1012.1 hPa | 0 mm | - | - | - |
| 1777511469 | 20° C | 85% | 1011.8 hPa | 0 mm | - | - | - |
| 1777510804 | 20° C | 86% | 1011.8 hPa | 0 mm | - | - | - |
| 1777510142 | 20.56° C | 83% | 1011.5 hPa | 0 mm | - | - | - |
| 1777509479 | 20.56° C | 81% | 1011.1 hPa | 0 mm | - | - | - |
| 1777508817 | 20.56° C | 80% | 1010.8 hPa | 0 mm | - | - | - |
| 1777508155 | 21.11° C | 80% | 1010.4 hPa | 0 mm | - | - | - |
| 1777507492 | 21.11° C | 80% | 1010.8 hPa | 0 mm | - | - | - |
| 1777506830 | 21.67° C | 78% | 1010.8 hPa | 0 mm | - | - | - |
| 1777506168 | 21.67° C | 76% | 1010.4 hPa | 0 mm | - | - | - |
| 1777505505 | 22.22° C | 74% | 1010.1 hPa | 0 mm | - | - | - |
* Rain latest hour (hover to see other rain measurements)
** Current wind speed in m/s (hover to see current wind gust speed)